Weather History for KBBW - February, 2014

Change the Weather History Date:

Tuesday, February 4, 2014

  Actual Average Record
Temperature  
Mean Temperature 11 °F 26 °F  
Max Temperature 21 °F 38 °F 66 °F (1946)
Min Temperature 1 °F 13 °F -22 °F (1996)
Degree Days  
Heating Degree Days 54 39  
Month to date heating degree days 222 156  
Cooling Degree Days 0 0  
Month to date cooling degree days 0 0  
Year to date cooling degree days 0 0  
Moisture  
Dew Point 3 °F    
Average Humidity 85    
Maximum Humidity 96    
Minimum Humidity 73    
Precipitation  
Precipitation 0.00 in 0.02 in 0.50 in (1997)
Sea Level Pressure  
Sea Level Pressure 30.29 in    
Wind  
Wind Speed 17 mph (NNE)    
Max Wind Speed 28 mph    
Max Gust Speed 36 mph    
Visibility 3 miles    
Events Fog , Snow    
T = Trace of Precipitation, MM = Missing Value Source: NWS Daily Summary

Daily Weather History Graph

Daily Weather History Graph

Search for Another Location

Airport or City:

Trip Planner

Search our weather history database for the weather conditions in past years. The results will help you decide how hot, cold, wet, or windy it might be!

Date:

Astronomy

Feb. 04, 2014 Rise Set
Actual Time 7:46 AM CST 5:58 PM CST
Civil Twilight 7:17 AM CST 6:27 PM CST
Nautical Twilight 6:44 AM CST 7:00 PM CST
Astronomical Twilight 6:12 AM CST 7:33 PM CST
Moon 10:21 AM CST (2/4) 11:59 PM CST (2/4)
Length of Visible Light 11h 09m
Length of Day
10h 11m
Waxing Crescent, 29% of the Moon is Illuminated
Feb 4
Waxing Crescent
Feb 6
First Quarter
Feb 14
Full
Feb 22
Last Quarter
Mar 1
New

Hourly Weather History & Observations

Time (CST) Temp. Windchill Dew Point Humidity Pressure Visibility Wind Dir Wind Speed Gust Speed Precip Events Conditions
12:53 AM 21.0 °F 14.6 °F 17.1 °F 85% 30.21 in 10.0 mi NE 4.6 mph - N/A   Overcast
1:53 AM 21.0 °F - 17.1 °F 85% 30.20 in 10.0 mi Calm Calm - N/A   Overcast
2:53 AM 21.0 °F - 17.1 °F 85% 30.21 in 10.0 mi Calm Calm - N/A   Overcast
3:53 AM 19.0 °F 6.8 °F 15.1 °F 85% 30.23 in 8.0 mi NNE 11.5 mph - N/A   Overcast
4:01 AM 17.6 °F 4.3 °F 15.8 °F 93% 30.13 in 9.0 mi NNE 12.7 mph - N/A   Overcast
4:31 AM 15.8 °F 1.4 °F 12.2 °F 86% 30.13 in 8.0 mi NNE 13.8 mph - N/A   Overcast
4:45 AM 15.8 °F 1.4 °F 12.2 °F 86% 30.13 in 7.0 mi NNE 13.8 mph - N/A   Overcast
4:53 AM 15.1 °F 1.1 °F 12.9 °F 91% 30.25 in 7.0 mi NNE 12.7 mph - N/A   Overcast
5:53 AM 14.0 °F -0.8 °F 12.0 °F 92% 30.27 in 7.0 mi NNE 13.8 mph - N/A   Overcast
6:53 AM 12.9 °F -1.6 °F 10.0 °F 88% 30.26 in 6.0 mi NNE 12.7 mph - N/A   Overcast
7:35 AM 12.2 °F -2.5 °F 8.6 °F 85% 30.17 in 4.0 mi North 12.7 mph - 0.00 in Snow Light Snow
7:53 AM 10.9 °F -4.7 °F 7.0 °F 84% 30.29 in 5.0 mi NNE 13.8 mph - 0.00 in Snow Light Snow
8:31 AM 10.4 °F -7.2 °F 6.8 °F 85% 30.16 in 2.5 mi NNE 17.3 mph 23.0 mph 0.00 in Snow Light Snow
8:39 AM 10.4 °F -5.4 °F 6.8 °F 85% 30.17 in 3.0 mi NNE 13.8 mph 24.2 mph 0.00 in Snow Light Snow
8:49 AM 10.4 °F -6.0 °F 6.8 °F 85% 30.17 in 2.5 mi North 15.0 mph - 0.00 in Snow Light Snow
8:53 AM 10.0 °F -7.1 °F 6.1 °F 84% 30.30 in 2.5 mi North 16.1 mph 21.9 mph 0.00 in Snow Light Snow
9:01 AM 10.4 °F -7.2 °F 6.8 °F 85% 30.17 in 2.0 mi NNE 17.3 mph 27.6 mph 0.00 in Snow Light Snow
9:07 AM 8.6 °F -8.3 °F 5.0 °F 85% 30.17 in 1.8 mi NNE 15.0 mph 27.6 mph 0.00 in Snow Light Snow
9:43 AM 8.6 °F -10.0 °F 5.0 °F 85% 30.17 in 1.0 mi NNE 18.4 mph 27.6 mph 0.00 in Snow Light Snow
9:53 AM 9.0 °F -9.5 °F 5.0 °F 84% 30.30 in 1.0 mi NNE 18.4 mph 27.6 mph 0.00 in Snow Light Snow
10:33 AM 8.6 °F -8.9 °F 5.0 °F 85% 30.18 in 1.5 mi NNE 16.1 mph 25.3 mph 0.00 in Snow Light Snow
10:48 AM 8.6 °F -10.5 °F 3.2 °F 79% 30.18 in 1.2 mi NNE 19.6 mph 26.5 mph 0.00 in Snow Light Snow
10:53 AM 10.0 °F -8.6 °F 3.9 °F 76% 30.31 in 1.2 mi NNE 19.6 mph 29.9 mph 0.00 in Snow Light Snow
11:07 AM 10.4 °F -8.2 °F 5.0 °F 79% 30.19 in 1.0 mi NNE 19.6 mph 27.6 mph 0.00 in Snow Light Snow
11:20 AM 8.6 °F -8.9 °F 3.2 °F 79% 30.20 in 1.2 mi NNE 16.1 mph 29.9 mph 0.00 in Snow Light Snow
11:46 AM 6.8 °F -10.7 °F 1.4 °F 79% 30.22 in 1.8 mi NNE 15.0 mph 25.3 mph 0.00 in Snow Light Snow
11:53 AM 7.0 °F -13.1 °F 1.9 °F 80% 30.36 in 1.8 mi NE 20.7 mph 26.5 mph 0.00 in Snow Light Snow
12:53 PM 8.1 °F -9.6 °F 1.9 °F 76% 30.34 in 1.2 mi NNE 16.1 mph 28.8 mph 0.00 in Snow Light Snow
1:53 PM 6.1 °F -14.3 °F 1.0 °F 80% 30.33 in 1.2 mi NNE 20.7 mph 27.6 mph 0.00 in Snow Light Snow
2:15 PM 6.8 °F -14.3 °F -0.4 °F 72% 30.19 in 0.8 mi North 23.0 mph 34.5 mph 0.00 in Snow Light Snow
2:53 PM 5.0 °F -16.2 °F -0.0 °F 80% 30.33 in 0.8 mi NNE 21.9 mph 35.7 mph 0.00 in Snow Light Snow
3:17 PM 5.0 °F -17.1 °F -0.4 °F 78% 30.20 in 1.0 mi NNE 24.2 mph 31.1 mph 0.00 in Snow Light Snow
3:19 PM 5.0 °F -16.7 °F -0.4 °F 78% 30.20 in 0.8 mi North 23.0 mph 31.1 mph 0.00 in Snow Light Snow
3:35 PM 5.0 °F -16.7 °F -0.4 °F 78% 30.22 in 0.5 mi North 23.0 mph 31.1 mph 0.00 in Snow Snow
3:51 PM 3.2 °F -19.0 °F 1.4 °F 92% 30.22 in 0.2 mi NNE 23.0 mph 31.1 mph 0.00 in Fog , Snow Snow
3:53 PM 3.9 °F -16.1 °F 1.0 °F 88% 30.37 in 0.2 mi NNE 18.4 mph 31.1 mph 0.00 in Fog , Snow Snow
4:07 PM 3.2 °F -18.6 °F -0.4 °F 85% 30.23 in 0.2 mi North 21.9 mph 29.9 mph 0.00 in Fog , Snow Light Snow
4:35 PM 3.2 °F -18.1 °F -0.4 °F 85% 30.24 in 0.5 mi North 20.7 mph 29.9 mph 0.00 in Fog , Snow Light Snow
4:53 PM 3.0 °F -19.3 °F -0.9 °F 84% 30.40 in 0.5 mi North 23.0 mph 33.4 mph 0.00 in Fog , Snow Light Snow
5:36 PM 1.4 °F -21.0 °F -2.2 °F 85% 30.27 in 1.0 mi North 21.9 mph 26.5 mph 0.00 in Snow Light Snow
5:51 PM 1.4 °F -21.9 °F -2.2 °F 85% 30.28 in 0.8 mi North 24.2 mph 31.1 mph 0.00 in Snow Light Snow
5:53 PM 1.9 °F -20.7 °F -2.9 °F 80% 30.44 in 0.8 mi North 23.0 mph 31.1 mph 0.00 in Snow Light Snow
6:12 PM 1.4 °F -21.0 °F -2.2 °F 85% 30.29 in 1.2 mi North 21.9 mph 32.2 mph 0.00 in Snow Light Snow
6:22 PM 1.4 °F -20.5 °F -2.2 °F 85% 30.29 in 1.0 mi North 20.7 mph 29.9 mph 0.00 in Snow Light Snow
6:29 PM 1.4 °F -21.0 °F -2.2 °F 85% 30.29 in 1.2 mi North 21.9 mph 31.1 mph 0.00 in Snow Light Snow
6:53 PM 1.9 °F -19.2 °F -2.9 °F 80% 30.47 in 1.8 mi North 19.6 mph 26.5 mph 0.00 in Snow Light Snow
7:06 PM 1.4 °F -18.8 °F -2.2 °F 85% 30.31 in 1.5 mi NNE 17.3 mph 31.1 mph 0.00 in Snow Light Snow
7:29 PM 1.4 °F -21.0 °F -2.2 °F 85% 30.32 in 2.0 mi North 21.9 mph 27.6 mph 0.00 in Snow Light Snow
7:53 PM 1.0 °F -20.9 °F -4.0 °F 79% 30.50 in 2.0 mi North 20.7 mph 29.9 mph 0.00 in Snow Light Snow
8:40 PM 1.4 °F -21.9 °F -5.8 °F 72% 30.34 in 1.8 mi North 24.2 mph 34.5 mph 0.00 in Snow Light Snow
8:53 PM 1.0 °F -22.4 °F -5.1 °F 75% 30.52 in 2.0 mi North 24.2 mph 34.5 mph 0.00 in Snow Light Snow
9:20 PM 1.4 °F -18.8 °F -4.0 °F 78% 30.36 in 3.0 mi North 17.3 mph 25.3 mph 0.00 in Snow Light Snow
9:34 PM 1.4 °F -18.2 °F -4.0 °F 78% 30.36 in 2.5 mi North 16.1 mph 34.5 mph 0.00 in Snow Light Snow
9:53 PM 1.0 °F -20.9 °F -4.0 °F 79% 30.56 in 2.0 mi North 20.7 mph - 0.00 in Snow Light Snow
10:03 PM 1.4 °F -19.9 °F -4.0 °F 78% 30.39 in 1.8 mi North 19.6 mph 26.5 mph 0.00 in Snow Light Snow
10:40 PM 1.4 °F -19.9 °F -4.0 °F 78% 30.40 in 2.0 mi North 19.6 mph 26.5 mph 0.00 in Snow Light Snow
10:53 PM 1.0 °F -19.9 °F -4.0 °F 79% 30.58 in 3.0 mi North 18.4 mph 25.3 mph 0.00 in Snow Light Snow
11:12 PM 1.4 °F -19.9 °F -4.0 °F 78% 30.41 in 2.5 mi North 19.6 mph 27.6 mph 0.00 in Snow Light Snow
11:51 PM 1.4 °F -19.4 °F -4.0 °F 78% 30.42 in 3.0 mi North 18.4 mph - 0.00 in Snow Light Snow
11:53 PM 1.0 °F -20.9 °F -4.0 °F 79% 30.61 in 3.0 mi North 20.7 mph - 0.00 in Snow Light Snow